When you browse on this site, cookies collect data to enhance your experience and personalize the content and advertising you see.
Visit our Privacy Policy to learn more. By continuing to use the site, you agree to this use of cookies and data.
  • In Hungary
  • List of Countries
  • For 7 days
  • Water Temperature
  • Satellite Maps
  • Weather Map
  • News
  • Weather Widgets
  • user-avatar
    Login

    Hourly Weather Valyaevka

    Today, 24 January, Thursday

    Time Temperature Precipitation Wind Pressure Humidity
    00:00 -15°C° 0.4 mm 5 mps 742 mmHg 94%
    01:00 -15°C° 0.4 mm 5 mps 741 mmHg 94%
    02:00 -15°C° 0 mm 5 mps 740 mmHg 94%
    03:00 -15°C° 0.3 mm 5 mps 740 mmHg 94%
    04:00 -17°C° 0.3 mm 5 mps 739 mmHg 94%
    05:00 -17°C° 0.3 mm 5 mps 739 mmHg 94%
    06:00 -17°C° 0.2 mm 5 mps 738 mmHg 94%
    07:00 -16°C° 0.2 mm 4 mps 738 mmHg 94%
    08:00 -16°C° 0.2 mm 4 mps 738 mmHg 94%
    09:00 -16°C° 0 mm 4 mps 738 mmHg 94%
    10:00 -16°C° 0 mm 4 mps 739 mmHg 93%
    11:00 -16°C° 0 mm 4 mps 739 mmHg 93%
    12:00 -16°C° 0 mm 4 mps 739 mmHg 93%
    13:00 -16°C° 0 mm 4 mps 739 mmHg 93%
    14:00 -16°C° 0 mm 4 mps 739 mmHg 93%
    15:00 -16°C° 0 mm 3 mps 740 mmHg 94%
    16:00 -16°C° 0 mm 3 mps 741 mmHg 95%
    17:00 -17°C° 0 mm 3 mps 741 mmHg 96%
    18:00 -18°C° 0 mm 3 mps 742 mmHg 96%
    19:00 -18°C° 0 mm 3 mps 742 mmHg 97%
    20:00 -19°C° 0 mm 3 mps 743 mmHg 98%
    21:00 -18°C° 0 mm 2 mps 743 mmHg 97%
    22:00 -18°C° 0 mm 2 mps 743 mmHg 95%
    23:00 -19°C° 0 mm 2 mps 744 mmHg 94%

    Tomorrow, 25 January, Friday

    Time Temperature Precipitation Wind Pressure Humidity
    00:00 -19°C° 0 mm 2 mps 744 mmHg 95%
    01:00 -19°C° 0 mm 2 mps 745 mmHg 96%
    02:00 -19°C° 0 mm 2 mps 745 mmHg 98%
    03:00 -19°C° 0 mm 2 mps 746 mmHg 98%
    04:00 -20°C° 0 mm 2 mps 746 mmHg 98%
    05:00 -22°C° 0 mm 3 mps 746 mmHg 99%
    06:00 -22°C° 0 mm 3 mps 747 mmHg 99%
    07:00 -22°C° 0 mm 3 mps 747 mmHg 99%
    08:00 -23°C° 0 mm 3 mps 748 mmHg 99%
    09:00 -22°C° 0 mm 3 mps 748 mmHg 96%
    10:00 -19°C° 0 mm 3 mps 748 mmHg 93%
    11:00 -18°C° 0 mm 3 mps 749 mmHg 91%
    12:00 -17°C° 0 mm 2 mps 749 mmHg 91%
    13:00 -16°C° 0 mm 2 mps 749 mmHg 91%
    14:00 -16°C° 0 mm 2 mps 749 mmHg 91%
    15:00 -17°C° 0 mm 2 mps 749 mmHg 92%
    16:00 -19°C° 0 mm 3 mps 749 mmHg 92%
    17:00 -21°C° 0 mm 3 mps 749 mmHg 93%
    18:00 -22°C° 0 mm 3 mps 749 mmHg 92%
    19:00 -22°C° 0 mm 3 mps 749 mmHg 92%
    20:00 -23°C° 0 mm 4 mps 749 mmHg 92%
    21:00 -23°C° 0 mm 4 mps 748 mmHg 92%
    22:00 -23°C° 0 mm 4 mps 748 mmHg 92%
    23:00 -23°C° 0 mm 4 mps 748 mmHg 92%

    Day after tomorrow, 26 January, Saturday

    Time Temperature Precipitation Wind Pressure Humidity
    00:00 -23°C° 0 mm 4 mps 747 mmHg 91%
    01:00 -24°C° 0 mm 5 mps 746 mmHg 90%
    02:00 -22°C° 0 mm 5 mps 746 mmHg 89%
    03:00 -22°C° 0 mm 5 mps 745 mmHg 89%
    04:00 -22°C° 0 mm 6 mps 744 mmHg 89%
    05:00 -22°C° 0 mm 6 mps 744 mmHg 88%
    06:00 -21°C° 0.2 mm 6 mps 743 mmHg 91%
    07:00 -20°C° 0.2 mm 5 mps 742 mmHg 93%
    08:00 -19°C° 0.2 mm 5 mps 741 mmHg 95%
    09:00 -18°C° 0.7 mm 5 mps 741 mmHg 95%
    10:00 -17°C° 0.7 mm 6 mps 740 mmHg 95%
    11:00 -16°C° 0.7 mm 6 mps 739 mmHg 95%
    12:00 -15°C° 0.6 mm 5 mps 739 mmHg 95%
    13:00 -14°C° 0.6 mm 5 mps 738 mmHg 95%
    14:00 -13°C° 0.6 mm 5 mps 737 mmHg 95%
    15:00 -12°C° 0.5 mm 5 mps 737 mmHg 95%
    16:00 -12°C° 0.5 mm 5 mps 736 mmHg 94%
    17:00 -11°C° 0.5 mm 5 mps 735 mmHg 94%
    18:00 -10°C° 0.5 mm 5 mps 735 mmHg 94%
    19:00 -8°C° 0.5 mm 5 mps 734 mmHg 94%
    20:00 -7°C° 0.5 mm 5 mps 733 mmHg 95%
    21:00 -6°C° 0.3 mm 5 mps 733 mmHg 95%
    22:00 -4°C° 0.3 mm 4 mps 732 mmHg 95%
    23:00 -3°C° 0.3 mm 4 mps 732 mmHg 95%

    27 January, Sunday

    Time Temperature Precipitation Wind Pressure Humidity
    00:00 -3°C° 0.7 mm 4 mps 731 mmHg 95%
    01:00 -2°C° 0.7 mm 4 mps 731 mmHg 95%
    02:00 -1°C° 0.7 mm 4 mps 731 mmHg 96%
    03:00 -2°C° 0.7 mm 4 mps 730 mmHg 96%
    04:00 -2°C° 0.7 mm 4 mps 730 mmHg 96%
    05:00 -1°C° 0.7 mm 3 mps 729 mmHg 96%
    06:00 -1°C° 0.7 mm 3 mps 729 mmHg 96%
    07:00 -2°C° 0.7 mm 3 mps 729 mmHg 96%
    08:00 -4°C° 0.7 mm 3 mps 729 mmHg 97%
    09:00 -5°C° 0.6 mm 3 mps 729 mmHg 96%
    10:00 -6°C° 0.6 mm 3 mps 729 mmHg 96%
    11:00 -7°C° 0.6 mm 3 mps 729 mmHg 96%
    12:00 -7°C° 0.5 mm 3 mps 729 mmHg 95%
    13:00 -9°C° 0.5 mm 4 mps 729 mmHg 95%
    14:00 -9°C° 0.5 mm 4 mps 729 mmHg 95%
    15:00 -10°C° 0.2 mm 4 mps 729 mmHg 94%
    16:00 -10°C° 0.2 mm 4 mps 729 mmHg 94%
    17:00 -11°C° 0.2 mm 4 mps 729 mmHg 94%
    18:00 -12°C° 0 mm 4 mps 730 mmHg 94%
    19:00 -14°C° 0 mm 5 mps 730 mmHg 94%
    20:00 -15°C° 0 mm 5 mps 731 mmHg 94%
    21:00 -17°C° 0 mm 5 mps 731 mmHg 94%
    22:00 -16°C° 0 mm 4 mps 732 mmHg 94%
    23:00 -17°C° 0 mm 4 mps 732 mmHg 94%

    28 January, Monday

    Time Temperature Precipitation Wind Pressure Humidity
    00:00 -18°C° 0 mm 4 mps 733 mmHg 95%
    01:00 -18°C° 0 mm 3 mps 733 mmHg 96%
    02:00 -21°C° 0 mm 3 mps 734 mmHg 97%
    03:00 -21°C° 0 mm 3 mps 734 mmHg 97%
    04:00 -22°C° 0 mm 3 mps 735 mmHg 98%
    05:00 -23°C° 0 mm 3 mps 735 mmHg 98%
    06:00 -24°C° 0 mm 3 mps 736 mmHg 98%
    07:00 -24°C° 0 mm 3 mps 736 mmHg 98%
    08:00 -25°C° 0 mm 3 mps 737 mmHg 99%
    09:00 -24°C° 0 mm 3 mps 737 mmHg 97%
    10:00 -22°C° 0 mm 3 mps 738 mmHg 96%
    11:00 -21°C° 0 mm 3 mps 738 mmHg 94%
    12:00 -19°C° 0 mm 2 mps 738 mmHg 94%
    13:00 -18°C° 0 mm 2 mps 738 mmHg 94%
    14:00 -17°C° 0 mm 2 mps 739 mmHg 94%
    15:00 -17°C° 0 mm 1 mps 739 mmHg 95%
    16:00 -18°C° 0 mm 1 mps 739 mmHg 96%
    17:00 -19°C° 0 mm 1 mps 739 mmHg 97%
    18:00 -19°C° 0 mm 1 mps 739 mmHg 95%
    19:00 -19°C° 0 mm 1 mps 739 mmHg 93%
    20:00 -21°C° 0 mm 2 mps 739 mmHg 90%
    21:00 -20°C° 0 mm 2 mps 739 mmHg 89%
    22:00 -19°C° 0 mm 2 mps 739 mmHg 88%
    23:00 -19°C° 0 mm 3 mps 739 mmHg 87%

    29 January, Tuesday

    Time Temperature Precipitation Wind Pressure Humidity
    00:00 -17°C° 0.1 mm 3 mps 739 mmHg 90%
    01:00 -15°C° 0.1 mm 3 mps 739 mmHg 92%
    02:00 -14°C° 0.1 mm 4 mps 739 mmHg 94%
    03:00 -12°C° 0.2 mm 4 mps 738 mmHg 94%
    04:00 -13°C° 0.2 mm 5 mps 738 mmHg 94%
    05:00 -12°C° 0.2 mm 5 mps 738 mmHg 94%
    06:00 -11°C° 0.4 mm 5 mps 737 mmHg 94%
    07:00 -10°C° 0.4 mm 6 mps 737 mmHg 94%
    08:00 -9°C° 0.4 mm 6 mps 737 mmHg 94%
    09:00 -8°C° 0.2 mm 6 mps 737 mmHg 92%
    10:00 -6°C° 0.2 mm 6 mps 736 mmHg 91%
    11:00 -6°C° 0.2 mm 7 mps 736 mmHg 90%
    12:00 -6°C° 0.1 mm 7 mps 736 mmHg 90%
    13:00 -5°C° 0.1 mm 6 mps 735 mmHg 91%
    14:00 -5°C° 0.1 mm 6 mps 735 mmHg 91%
    15:00 -4°C° 0.4 mm 6 mps 735 mmHg 92%
    16:00 -4°C° 0.4 mm 6 mps 735 mmHg 92%
    17:00 -4°C° 0.4 mm 6 mps 735 mmHg 93%
    18:00 -3°C° 0.1 mm 6 mps 735 mmHg 93%
    19:00 -2°C° 0.1 mm 5 mps 735 mmHg 94%
    20:00 -1°C° 0.1 mm 5 mps 735 mmHg 94%
    21:00 -1°C° 0 mm 5 mps 735 mmHg 95%
    22:00 -1°C° 0 mm 4 mps 736 mmHg 97%
    23:00 -1°C° 0 mm 4 mps 736 mmHg 98%
    Show more